Regional Weather Roundup
Issued by NWS Grand Forks, ND

Home | Current Version | Previous Version | Graphics & Text | Print | Product List | Glossary On
Versions: 1 2 3 4 5 6 7 8 9 10 11 12 13 14 15 16 17 18 19 20 21 22 23 24 25 26 27 28 29 30 31 32 33 34 35 36 37 38 39 40 41 42 43 44 45 46 47 48 49 50
007
ASUS43 KFGF 191331
RWRFGF
PRAIRIE TO PINES  WEATHER ROUNDUP
NATIONAL WEATHER SERVICE EASTERN NORTH DAKOTA/GRAND FORKS ND
700 AM CST THU JAN 19 2017

 **SATELLITE DATA USED TO AUGMENT SKY COVER AT AUTOMATED STATIONS**
 *****  WEATHER ACROSS EASTERN NORTH DAKOTA  *****

CITY           SKY/WX    TMP DP  RH WIND       PRES   REMARKS
GRAND FORKS    FAIR      23  19  85 S15       29.58S WCI  10
GRAND FRKS AFB FAIR      22  20  91 S10       29.57S WCI  11
DEVILS LAKE    FAIR      21  16  81 CALM      29.54R
FARGO          FOG       27  26  96 SE14      29.61F VSB 3/4 WCI  16
WAHPETON ARPT  CLOUDY    27  23  86 SE8       29.65F VSB 1   WCI  18
$$

 ***** WEATHER ACROSS CENTRAL AND WESTERN NORTH DAKOTA  *****

CITY           SKY/WX    TMP DP  RH WIND       PRES   REMARKS
BISMARCK       FAIR      11   6  81 E5        29.54F WCI   3
MINOT          FAIR      23  19  85 SE3       29.48S
JAMESTOWN      FAIR      19  16  88 CALM      29.55S
MINOT AFB      FAIR      21  18  88 S8        29.47S WCI  11
GARRISON         N/A     16  13  88 CALM      29.50F
WILLISTON      FAIR      19  18  95 S3        29.49S
DICKINSON      FAIR      22  15  75 SW5       29.47F WCI  16
HETTINGER      FAIR       8   5  87 W3        29.51F
$$

 *****  OTHER AIRPORT OBSERVATIONS IN OUR AREA  *****

CITY           SKY/WX    TMP DP  RH WIND       PRES   REMARKS
WALHALLA       NOT AVBL
GRAFTON AIRPOR FAIR      21  19  93 S12       29.58S WCI   9
VALLEY CITY AR FOG       23  23 100 S12       29.58R VSB 1   WCI  12
CANDO          NOT AVBL
CAVALIER APRT    N/A     23  18  80 S12       29.53S WCI  12
GWINNER        CLOUDY    21  19  93 S7        29.60F VSB 1/2 WCI  13
SHEYENNE NWR     N/A     15  12  88 SE5       29.95S WCI   7
ROLLA            N/A    N/A N/A N/A MISG        N/A
 ***** THE ABOVE OBSERVATIONS ARE NON NWS ARE NOT QUALITY
       CONTROLLED AND MAY MIS-REPORT RAIN FOR SNOW...
$$

  *****  WEATHER ACROSS NORTHERN MINNESOTA  *****

CITY           SKY/WX    TMP DP  RH WIND       PRES   REMARKS
FLAG ISLAND    FAIR      25  19  80 SE16      29.57F WCI  12
WARROAD        FAIR      30  25  80 S8        29.58F WCI  23
ROSEAU         FAIR      30  25  80 S14       29.57F WCI  20
HALLOCK        FAIR      27  23  86 S14       29.56S WCI  15
THF RVR FALLS  MOCLDY    25  24  96 SE13      29.60F WCI  14
BAUDETTE       FAIR      27  21  78 S8        29.62S WCI  19
WASKISH        FAIR      28  27  93 S8        29.65F WCI  20
CROOKSTON      FOG       27  27 100 S15       29.60F VSB 1/2 WCI  15
STEPHEN NDAWN    N/A     27  25  93 S13         N/A  WCI  16
GREENBUSH NDAW   N/A     28  27  93 S8          N/A  WCI  20
$$
  *****  WEATHER ACROSS CENTRAL AND WEST MINNESOTA  *****

CITY           SKY/WX    TMP DP  RH WIND       PRES   REMARKS
FOSSTON        FAIR      23  21  93 S9        29.62F FOG     WCI  13
BEMIDJI        FOG       28  28  99 S9        29.65F VSB 1/2 WCI  20
PARK RAPIDS    FOG       31  29  92 S9        29.68R VSB 1/4 WCI  23
ELBOW LAKE     FAIR      28  28 100 SE9       29.68S FOG     WCI  20
WADENA         FOG       30  30 100 SE6       29.69S VSB 1/4 WCI  24
DETROIT LAKES  FOG       32  32 100 S10       29.65F VSB 1/2 WCI  24
MOORHEAD       FOG       28  27  93 S12       29.63F VSB 1/2 WCI  18
FERGUS FALLS   FOG       30  30 100 SE12      29.70F VSB 1   WCI  21
MORRIS MN      FAIR      28  28 100 SE12      29.69R FOG     WCI  18
STAPLES        MIX PCPN  32  32 100 S10       29.71S VSB 1/2 WCI  24
$$
  *****  WEATHER ELSEWHERE ACROSS MINNESOTA  *****

CITY           SKY/WX    TMP DP  RH WIND       PRES   REMARKS
DULUTH         FOG       34  34 100 S12       29.76S VSB 1/4
INTRNTL FALLS  FAIR      23  20  88 S3        29.68R
ELY            FOG       28  28 100 S6        29.73F VSB 1   WCI  22
CLOQUET        FOG       34  32  93 S6        29.76F VSB 3/4
WHEATON        FAIR      36  36 100 SE9       29.68F
BRAINERD       FOG       33  33 100 S9        29.73S VSB 1/4
HIBBING        FOG       30  30 100 S6        29.72S VSB 1/4 WCI  24
ALEXANDRIA     FAIR      32  32 100 S10       29.70S WCI  24
SAINT CLOUD    FAIR      27  27 100 SE8       29.77S FOG     WCI  19
MINNEAPOLIS    FAIR      33  29  85 SE6       29.82S
$$

  *****  WEATHER ACROSS SOUTH DAKOTA  *****

CITY           SKY/WX    TMP DP  RH WIND       PRES   REMARKS
SIOUX FALLS    FAIR      36  33  89 S10       29.73F
BROOKINGS      FAIR      32  30  92 S12       29.68F WCI  23
WATERTOWN      FAIR      29  28  96 S12       29.66R WCI  19
HURON          FAIR      33  32  96 SE13      29.63F WCI  24
SISSETON         N/A     36  33  89 S12       29.64F
ABERDEEN       FOG       17  13  84 S5        29.61F VSB 1/4 WCI  10
MITCHELL       FAIR      32  32 100 SE7       29.68R
PIERRE         FAIR       9   6  88 CALM      29.55S
MOBRIDGE       FAIR      11   7  84 SE5       29.51F WCI   3
RAPID CITY     FAIR      26  17  68 NW6       29.51F WCI  19
$$

  *****  SOME WEATHER IN NEARBY STATES *****

CITY           SKY/WX    TMP DP  RH WIND       PRES   REMARKS
GLASGOW MT     FAIR      20  16  84 SE8       29.46S WCI  10
GREAT FALLS MT FAIR      41  25  53 S20       29.45R
CHEYENNE WY    FAIR      36  13  38 NW9       29.60S
SCOTTSBLUFF NE FAIR      21  17  84 E5        29.60S WCI  15
OMAHA NE       FAIR      33  29  85 CALM      29.79S FOG
DES MOINES IA  MOCLDY    32  31  96 E5        29.85F FOG
DAVENPORT IA   FAIR      30  29  96 SE6       29.93F FOG     WCI  24
CHICAGO IL     CLOUDY    33  33 100 S5        29.99F FOG
EAU CLAIRE WI  FAIR      30  29  96 SE3       29.87S FOG
LA CROSSE WI   MOCLDY    35  32  88 S8        29.91F FOG
$$

  *****  SOME NATIONAL WEATHER *****

CITY           SKY/WX    TMP DP  RH WIND       PRES   REMARKS
LA GUARDIA NY  FAIR      43  36  76 NW6       30.04R
RALEIGH NC     FAIR      37  35  92 CALM      30.11R
ATLANTA GA     MOCLDY    56  52  86 CALM      30.04S
NEW ORLEANS LA CLOUDY    70  69  97 S9        29.94R
OKLAHOMA CITY  CLOUDY    47  46  97 S9        29.76F
ALBUQUERQUE NM FAIR      33  29  85 S3        29.92S
SALT LAKE CITY LGT SNOW  27  23  85 N6        29.78S FOG     WCI  20
LOS ANGELES CA RAIN      53  53 100 SE10      29.94F FOG
BOISE ID       CLOUDY    35  33  92 SE9       29.63S
SEATTLE WA     MOCLDY    43  40  89 SE7       29.47S
$$

*** WEATHER ACROSS MANITOBA...SASKATCHEWAN AND ONTARIO ***
                ***ONTARIO***

CITY           SKY/WX    TMP DP  RH WIND       PRES   REMARKS
GERALDTON      CLOUDY    21  19  93 E2        29.79F FOG
THUNDER BAY    CLOUDY    21  21 100 CALM      29.81S FOG
SIOUX LOOKOUT  PTCLDY    27  23  86 S7        29.64F WCI  19
TORONTO        DRIZZLE   34  34 100 W7        30.05R FOG
BIG TROUT LK   CLOUDY    32  28  86 S14       29.55F WCI  22
PICKLE LAKE    MOCLDY    28  25  86 S16       29.59F WCI  17
DRYDEN         PTCLDY    27  23  86 S10       29.63S WCI  17
KENORA         PTCLDY    28  21  74 S12G17    29.57F WCI  18
$$
                *** MANITOBA***

CITY           SKY/WX    TMP DP  RH WIND       PRES   REMARKS
BRANDON        CLEAR     21  18  86 CALM      29.46S
DAUPHIN        CLEAR     36  30  80 CALM      29.38S
ISLAND LAKE    PTCLDY    28  25  86 SE9       29.38F WCI  20
PILOT MOUND      N/A     21  19  93 S7          N/A  WCI  13
THE PAS        PTCLDY    28  27  93 SW2       29.29R
THOMPSON       PTCLDY    27  25  93 VRB2      29.30F
WINNIPEG       PTCLDY    25  19  80 S18       29.50F WCI  11
LYNN LAKE      CLOUDY    30  30 100 SE5       29.26S
CHURCHILL      LGT SNOW  18  16  93 E20       29.51F DRFTSNOWWCI   1
GILLAM         CLOUDY    30  30 100 S7        29.38F WCI  23
$$
                ***SASKATCHEWAN***

CITY           SKY/WX    TMP DP  RH WIND       PRES   REMARKS
ESTEVAN        PTCLDY    23  19  86 S6        29.44F WCI  16
KINDERSLEY     PTCLDY    32  28  86 S9        29.30F WCI  24
LLOYDMINSTER   CLOUDY    27  23  86 SE5       29.26R WCI  21
PRINCE ALBERT  FOG       18  16  93 NE2       29.32R VSB 3/4
REGINA         PTCLDY    25  21  86 SE6       29.41S WCI  18
YORKTON        CLEAR     28  25  86 S10       29.37F WCI  19
N. BATTLEFORD  CLOUDY    32  32 100 N2        29.31R
LA RONGE       PTCLDY    21  19  93 CALM      29.28S
SASKATOON      PTCLDY    28  27  93 S6        29.34R WCI  22
SWIFT CURRENT  PTCLDY    39  32  75 S12G18    29.36S
$$
NOTE: THESE ARE AUTOMATED STATIONS WITH LIMITED QUALITY CONTROL
      "FAIR" INDICATES FEW OR NO CLOUDS BELOW 12,000 FEET WITH NO
      SIGNIFICANT WEATHER AND/OR OBSTRUCTIONS TO VISIBILITY.
      SKY/WX - SKY CONDITION AND SIGNIFICANT WEATHER.
      TMP - AIR TEMPERATURE.    DP   - DEWPOINT TEMPERATURE.
      RH  - RELATIVE HUMIDITY.  PRES - PRESSURE.
      HX  - HEAT INDEX.         WCI  - WIND CHILL INDEX.
$




USA.gov is the U.S. government's official web portal to all federal, state and local government web resources and services.